Flag Weather past 2 weeks in Mumbai, Maharashtra, India

Now
91 °F

Clear.


Feels Like: 97 °F
Forecast: 80 / 91 °F
Wind: 9 mph from West

Location: Bombay / Santacruz

Current Time: Nov 24, 2014 at 3:17:16 PM

Latest Report: Nov 24, 2014 at 2:40 PM


Visibility: 2 mi

Pressure: 29.80 "Hg

Humidity: 49%

Dew point: 70 °F

Location of MumbaiLocation

Historic Weather in Mumbai — Graph

°F

Mumbai temperature yesterday

Maximum temperature yesterday: 93 °F (at 12:40 PM)
Minimum temperature yesterday: 77 °F (at 4:10 AM)
Average temperature yesterday: 85 °F

Past Weeks' High & Low Weather Summary

 TemperatureHumidityPressure
High97 °F (Nov 10, 2:10 PM)84% (Nov 11, 3:10 AM)29.98 "Hg (Nov 11, 3:10 AM)
Low75 °F (Nov 22, 5:40 AM)25% (Nov 9, 2:40 PM)29.77 "Hg (Nov 10, 2:40 PM)
Average86 °F60%29.87 "Hg
* Reported Nov 9 1:40 PM — Nov 24 2:10 PM, Mumbai, Weather by CustomWeather, © 2014

Note: Actual official high and low records may vary slightly from our data, if they occured in-between our weather recording intervals... More about our weather records

Advertising

Mumbai weather history for previous 24 hours

 ConditionsComfort  
Time TempWeatherWind HumidityBarometerVisibility
2:10 PM
Nov 24
93 °FClear.5 mph32%29.83 "Hg1 mi
1:40 PM91 °FClear.7 mph36%29.83 "Hg1 mi
12:40 PM91 °FClear.6 mph36%29.86 "Hg2 mi
12:10 PM90 °FClear.6 mph38%29.89 "Hg1 mi
11:40 AM90 °FClear.7 mph41%29.89 "Hg1 mi
11:10 AM90 °FClear.8 mph41%29.92 "Hg1 mi
10:40 AM88 °FClear.6 mph40%29.92 "Hg1 mi
10:10 AM86 °FClear.6 mph46%29.95 "Hg1 mi
9:40 AM86 °FClear.9 mph43%29.92 "Hg1 mi
9:10 AM86 °FClear.7 mph43%29.92 "Hg1 mi
8:10 AM81 °FClear.6 mph54%29.89 "Hg1 mi
7:40 AM81 °FHaze.3 mph54%29.89 "Hg1 mi
7:10 AM81 °FHaze.5 mph54%29.89 "Hg1 mi
6:40 AM79 °FHaze.3 mph58%29.86 "Hg1 mi
6:10 AM79 °FHaze.5 mph58%29.86 "Hg1 mi
5:40 AM81 °FHaze.6 mph54%29.83 "Hg1 mi
5:10 AM79 °FHaze.6 mph61%29.83 "Hg1 mi
4:40 AM79 °FHaze.3 mph61%29.83 "Hg1 mi
4:10 AM81 °FHaze.6 mph58%29.83 "Hg1 mi
3:40 AM79 °FHaze.5 mph65%29.83 "Hg1 mi
2:40 AM81 °FHaze.3 mph66%29.83 "Hg1 mi
2:10 AM81 °FHaze.3 mph66%29.83 "Hg1 mi
1:40 AM82 °FHaze.No wind62%29.86 "Hg1 mi
1:10 AM81 °FHaze.5 mph66%29.86 "Hg1 mi
12:40 AM82 °FHaze.6 mph66%29.86 "Hg1 mi
12:10 AM82 °FHaze.3 mph62%29.86 "Hg1 mi
11:40 PM
Nov 23
82 °FHaze.5 mph62%29.89 "Hg1 mi
11:10 PM82 °FHaze.No wind62%29.89 "Hg1 mi
10:40 PM84 °FHaze.3 mph58%29.89 "Hg1 mi
10:10 PM84 °FHaze.No wind58%29.89 "Hg1 mi
9:40 PM84 °FHaze.3 mph62%29.89 "Hg1 mi
9:10 PM84 °FHaze.3 mph58%29.89 "Hg1 mi
8:40 PM84 °FClear.5 mph58%29.86 "Hg1 mi
8:10 PM86 °FClear.5 mph55%29.86 "Hg1 mi
7:40 PM86 °FClear.6 mph52%29.86 "Hg1 mi
7:10 PM86 °FClear.8 mph52%29.83 "Hg1 mi
6:40 PM86 °FClear.9 mph55%29.83 "Hg1 mi
6:10 PM86 °FClear.8 mph55%29.80 "Hg1 mi
5:40 PM86 °FClear.8 mph59%29.80 "Hg1 mi
5:10 PM88 °FClear.9 mph55%29.80 "Hg2 mi
4:40 PM90 °FClear.9 mph46%29.80 "Hg2 mi
4:10 PM90 °FClear.8 mph46%29.80 "Hg2 mi
3:40 PM90 °FClear.8 mph49%29.80 "Hg2 mi
3:10 PM90 °FClear.7 mph49%29.80 "Hg2 mi
Weather by CustomWeather, © 2014

See weather overviewHow to use our weather pages